Showing default

STRIX-4, 60352

Orbit data source: Space-Track

STRIX-4, 60352 is a payload satellite owned by Synspective (JP) in LEO that was launched on Fri, 02 Aug 2024 UTC via an ELECTRON launch vehicle from the Rocket Lab Launch Complex (RLLC). Payload-class satellites include a variety of spacecraft equipped with specific instruments for various scientific and technological missions. These include communications satellites like Starlink; space stations such as the ISS; scientific satellites like the Hubble; Earth observation satellites from companies like Planet Labs, Umbra, and HawkEye 360; GPS; miniature CubeSats for education and research; and military/defense satellites.

Loading next visibility...
Identifier
60352, 2024-137A
Orbit
LEO
Country
Flag of JPJP / JPN
Related business
Manufacturer
Synspective
Mission
Operational Commercial Radar Imaging
Bus & Motor
STRIX, Unknown motor
Mass
150 kg wet, 150 kg dry
Launch date (UTC)
2024-08-02 (1 year ago)
Launch vehicle
ELECTRON
Launch site
Rocket Lab Launch Complex (RLLC)
Object type
Payload
Rocket body
Debris
Shape & HBR
Box + 2 Pan, 1.0 m
Radar Cross Section
1.052 m², Medium (>0.1 m² and < 1m²)

Expand to show TLE details & history
Last TLE update: 5 hours ago

TLE from 5 hours ago
0 STRIX-4
1 60352U 24137A   25298.96536403  .00017300  00000-0  71976-3 0  9999
2 60352  43.0179 168.6483 0016347 209.7904 150.2017 15.23377512 68185
Epoch: 2025-10-25T23:10Z
TLE epoch observation values (Epoch: 2025-10-25T23:10:07.452Z)
Latitude
0.00001°
Longitude
146.52892°
Altitude
505.194 km
Speed
7.608 km/s
True Right ascension
11h 14m 35s
True Declination
0° 00' 00"
Sunlit
Object was in daylight at epoch
Visualization orbit readout
Latitude
Unknown
Longitude
Unknown
Altitude
Unknown
Speed
Unknown
Apparent Right ascension
Unknown
Apparent Declination
Unknown
Sunlit
N/A
Visualization observer readout
Local Sidereal Time
23:29:16
Azimuth
Unknown
Elevation
Unknown
Doppler factor
Unknown
Orbital elements
Apogee altitude
508.84 km
Perigee altitude
486.361 km
Semi-major axis
6,875.737 km
Eccentricity
0.00163
Inclination
43.0179°
RAAN
168.6483°
Arg. of periapsis
209.7904°
True anomaly
150.29462°
Mean anomaly
150.2017°
Eccentric anomaly
150.24818°
Mean motion
3.80684 °/min
Orbital period
94.57 mins
BSTAR
0.00071976
Loading maneuver chart data...
Computing Atmospheric mass density...
Loading historical data...
Loading historical data...
Loading historical data...
Loading historical data...
Loading historical data...
Loading historical data...
Loading historical data...
Other satellites on launch #137 in the year 2024 (2024-08-02 UTC)

Documentation

Showing up to 5 results
|